FW4448 East Hampton NY US current weather conditions

sailwx.info

Wind from 171 at 4 knots gusting 7

Air temperature 23.3° C
Dewpoint 19.9° C

Last reported at 2020-Jul-04 20:10 UTC.
Time now 2020-Jul-04 20:31 UTC

Location: N 40°58' W 072°12'.
View on Google Maps.

See reports from other nearby stations

  
Tides and Currents Weather Stations Pressure Air Temp Water Temp Dewpoint Dewpoint Depression Visibility Wind Speed Wind Dir Waves Ship Positions
date/time (UTC)wind fromknots sea level pressurealtimeterstation pressurevisibilityair tempwater tempwave heightnotes
2020-Jul-04 20:10 171 4 gusting 7 23.3
2020-Jul-04 20:03 200 2 gusting 7 23.3
2020-Jul-04 19:59 155 3 gusting 7 23.3
2020-Jul-04 19:53 190 2 gusting 8 22.8
2020-Jul-04 19:49 173 6 gusting 8 23.3
2020-Jul-04 19:43 163 1 gusting 6 23.9
2020-Jul-04 19:39 169 3 gusting 7 23.3
2020-Jul-04 19:33 340 2 gusting 6 23.3
2020-Jul-04 19:29 194 4 gusting 6 23.3
2020-Jul-04 19:23 136 3 gusting 7 23.3
2020-Jul-04 19:19 173 4 gusting 7 23.9
2020-Jul-04 19:13 149 5 gusting 7 23.9
2020-Jul-04 19:09 109 3 gusting 8 23.9
2020-Jul-04 19:03 169 5 gusting 8 23.9
2020-Jul-04 18:59 173 3 gusting 7 23.9
2020-Jul-04 18:53 139 3 gusting 7 23.3
2020-Jul-04 18:49 150 4 gusting 8 23.3
2020-Jul-04 18:43 160 3 gusting 7 23.3
2020-Jul-04 18:39 095 4 gusting 7 23.9
2020-Jul-04 18:33 118 2 gusting 8 23.9
2020-Jul-04 18:29 171 2 gusting 8 23.9
2020-Jul-04 18:23 082 4 gusting 7 23.9
2020-Jul-04 18:19 114 3 gusting 6 24.4
2020-Jul-04 18:13 059 1 gusting 5 25.0
2020-Jul-04 18:09 011 1 gusting 6 25.0
2020-Jul-04 18:03 044 2 gusting 6 25.0
2020-Jul-04 17:59 045 3 gusting 7 25.0
2020-Jul-04 17:53 039 4 gusting 7 24.4
2020-Jul-04 17:49 121 3 gusting 7 24.4
2020-Jul-04 17:43 360 1 gusting 6 24.4
2020-Jul-04 17:39 072 3 gusting 6 25.0
2020-Jul-04 17:33 223 1 gusting 6 23.9
2020-Jul-04 17:29 109 2 gusting 6 23.9
2020-Jul-04 17:23 159 2 gusting 4 23.9
2020-Jul-04 17:19 296 1 gusting 4 24.4
2020-Jul-04 17:13 102 1 gusting 5 23.9
2020-Jul-04 17:09 319 2 gusting 6 23.3
2020-Jul-04 17:03 138 1 gusting 6 23.3
2020-Jul-04 16:59 105 2 gusting 5 23.3
2020-Jul-04 16:53 355 3 gusting 7 23.3
2020-Jul-04 16:49 055 3 gusting 7 23.3
2020-Jul-04 16:43 022 1 gusting 6 22.8
2020-Jul-04 16:39 036 3 gusting 6 23.3
2020-Jul-04 16:33 078 1 gusting 6 23.9
2020-Jul-04 16:29 069 2 gusting 6 22.8
2020-Jul-04 16:23 048 1 gusting 7 22.2
2020-Jul-04 16:19 015 2 gusting 5 22.2
2020-Jul-04 16:13 063 2 gusting 5 22.8
2020-Jul-04 16:09 083 1 gusting 6 22.8
2020-Jul-04 16:03 078 2 gusting 8 22.2
2020-Jul-04 15:59 080 3 gusting 8 22.2
2020-Jul-04 15:53 013 0 gusting 6 22.8
2020-Jul-04 15:49 311 3 gusting 6 22.2
2020-Jul-04 15:43 098 2 gusting 8 22.2
2020-Jul-04 15:39 355 3 gusting 8 22.2
2020-Jul-04 15:33 360 4 gusting 8 21.7
2020-Jul-04 15:29 117 2 gusting 6 21.7
2020-Jul-04 15:24 049 2 gusting 6 21.1
2020-Jul-04 15:19 082 3 gusting 6 21.1
2020-Jul-04 15:13 110 1 gusting 6 21.1
2020-Jul-04 15:09 099 3 gusting 9 21.1
2020-Jul-04 15:03 082 2 gusting 9 21.1
2020-Jul-04 14:59 111 2 gusting 7 21.1
2020-Jul-04 14:53 070 1 gusting 7 20.6
2020-Jul-04 14:49 036 4 gusting 7 21.1
2020-Jul-04 14:43 032 2 gusting 7 21.1
2020-Jul-04 14:39 103 4 gusting 7 21.1
2020-Jul-04 14:33 022 1 gusting 9 21.1
2020-Jul-04 14:29 015 3 gusting 9 21.1
2020-Jul-04 14:23 059 4 gusting 8 21.1
2020-Jul-04 14:19 069 2 gusting 8 21.1
2020-Jul-04 14:13 049 2 gusting 10 20.6
2020-Jul-04 14:09 078 3 gusting 10 20.6
2020-Jul-04 14:03 049 2 gusting 9 20.0
2020-Jul-04 13:59 005 4 gusting 9 20.0
2020-Jul-04 13:53 061 4 gusting 9 20.0
2020-Jul-04 13:49 036 3 gusting 9 20.0
2020-Jul-04 13:43 068 4 gusting 6 20.0
2020-Jul-04 13:39 039 3 gusting 8 20.0
2020-Jul-04 13:33 115 2 gusting 8 20.0
2020-Jul-04 13:29 012 2 gusting 8 20.6
2020-Jul-04 13:23 313 3 gusting 6 20.6
2020-Jul-04 13:19 031 3 gusting 6 20.0
2020-Jul-04 13:13 057 2 gusting 6 20.0
2020-Jul-04 13:09 053 1 gusting 6 20.0
2020-Jul-04 13:03 042 2 gusting 6 20.0
2020-Jul-04 12:59 040 3 gusting 6 19.4
2020-Jul-04 12:53 059 2 gusting 7 19.4
2020-Jul-04 12:49 071 1 gusting 7 19.4
2020-Jul-04 12:43 034 2 gusting 6 19.4
2020-Jul-04 12:39 063 1 gusting 5 19.4
2020-Jul-04 12:33 034 1 gusting 5 19.4
2020-Jul-04 12:29 061 0 gusting 6 19.4
2020-Jul-04 12:23 046 3 gusting 8 19.4
2020-Jul-04 12:19 013 2 gusting 8 19.4
2020-Jul-04 12:13 355 3 gusting 8 19.4
2020-Jul-04 12:09 319 4 gusting 9 19.4
2020-Jul-04 12:03 009 2 gusting 9 18.9
2020-Jul-04 11:59 119 3 gusting 8 18.9
2020-Jul-04 11:53 028 1 gusting 8 18.9
2020-Jul-04 11:49 040 3 gusting 10 18.9
2020-Jul-04 11:43 344 2 gusting 10 18.9
2020-Jul-04 11:39 026 2 gusting 7 18.9
2020-Jul-04 11:33 046 2 gusting 6 18.9
2020-Jul-04 11:29 040 2 gusting 6 18.9
2020-Jul-04 11:23 037 2 gusting 6 18.9
2020-Jul-04 11:19 069 3 gusting 7 18.9
2020-Jul-04 11:14 320 3 gusting 7 18.9
2020-Jul-04 11:10 073 1 gusting 4 18.9
2020-Jul-04 11:05 050 1 gusting 6 18.9
2020-Jul-04 10:59 021 2 gusting 9 18.9
2020-Jul-04 10:53 066 3 gusting 9 18.3
2020-Jul-04 10:49 035 2 gusting 7 18.3
2020-Jul-04 10:43 030 2 gusting 7 18.3
2020-Jul-04 10:39 043 3 gusting 4 18.3
2020-Jul-04 10:33 076 2 gusting 5 18.3
2020-Jul-04 10:29 016 2 gusting 5 18.3
2020-Jul-04 10:23 005 0 gusting 5 18.3
2020-Jul-04 10:20 020 1 gusting 4 18.3
2020-Jul-04 10:13 005 0 gusting 4 18.3
2020-Jul-04 10:09 005 2 gusting 4 18.3
2020-Jul-04 10:03 019 1 gusting 4 18.3
2020-Jul-04 09:59 016 0 gusting 4 18.3
2020-Jul-04 09:53 027 2 gusting 4 18.3
2020-Jul-04 09:49 047 0 gusting 4 18.3
2020-Jul-04 09:43 055 1 gusting 4 17.8
2020-Jul-04 09:39 031 2 gusting 4 17.8
2020-Jul-04 09:33 054 2 gusting 4 17.8
2020-Jul-04 09:29 021 0 gusting 4 17.8
2020-Jul-04 09:23 021 0 gusting 2 17.8
2020-Jul-04 09:19 017 0 gusting 4 17.8
2020-Jul-04 09:13 022 1 gusting 4 17.8
2020-Jul-04 09:09 030 0 gusting 3 17.8
2020-Jul-04 09:03 038 1 gusting 5 17.8
2020-Jul-04 08:59 045 1 gusting 5 17.8
2020-Jul-04 08:53 337 1 gusting 4 17.8
2020-Jul-04 08:49 061 2 gusting 6 17.8
2020-Jul-04 08:43 067 1 gusting 6 17.8
2020-Jul-04 08:39 029 1 gusting 4 17.8
2020-Jul-04 08:33 012 0 gusting 6 17.8
2020-Jul-04 08:29 045 1 gusting 6 17.8
2020-Jul-04 08:23 045 0 gusting 4 17.8
2020-Jul-04 08:19 033 1 gusting 4 17.8
2020-Jul-04 08:13 044 1 gusting 5 17.8
2020-Jul-04 08:09 049 1 gusting 5 17.8
2020-Jul-04 08:03 065 2 gusting 5 17.8
2020-Jul-04 07:59 018 1 gusting 4 17.8
2020-Jul-04 07:53 005 2 gusting 4 17.8
2020-Jul-04 07:49 034 1 gusting 3 17.8
2020-Jul-04 07:43 037 0 gusting 4 17.8
2020-Jul-04 07:39 015 0 gusting 4 17.8
2020-Jul-04 07:33 005 0 gusting 4 17.8
2020-Jul-04 07:29 022 0 gusting 3 17.8
2020-Jul-04 07:23 023 1 gusting 3 17.8
2020-Jul-04 07:19 073 0 gusting 3 17.8
2020-Jul-04 07:13 071 1 gusting 3 17.8
2020-Jul-04 07:09 058 0 gusting 3 17.8
2020-Jul-04 07:03 011 0 gusting 3 17.8
2020-Jul-04 06:59 042 1 gusting 3 17.8
2020-Jul-04 06:53 046 1 gusting 3 17.8
2020-Jul-04 06:49 036 1 gusting 4 17.8
2020-Jul-04 06:43 044 2 gusting 4 17.8
2020-Jul-04 06:40 043 1 gusting 4 17.8
2020-Jul-04 06:34 070 0 gusting 5 17.8
2020-Jul-04 06:29 046 2 gusting 6 17.8
2020-Jul-04 06:24 061 1 gusting 5 17.8
2020-Jul-04 06:19 042 2 gusting 5 17.8
2020-Jul-04 06:13 028 1 gusting 5 17.8
2020-Jul-04 06:09 026 1 gusting 5 17.8
2020-Jul-04 06:03 041 2 gusting 5 17.8
2020-Jul-04 05:59 049 1 gusting 4 17.8
2020-Jul-04 05:53 345 1 gusting 5 17.8
2020-Jul-04 05:49 020 1 gusting 5 17.8
2020-Jul-04 05:43 026 1 gusting 5 17.8
2020-Jul-04 05:39 018 2 gusting 7 17.8
2020-Jul-04 05:33 072 1 gusting 7 17.8
2020-Jul-04 05:29 031 2 gusting 7 17.8
2020-Jul-04 05:23 075 2 gusting 7 18.3
2020-Jul-04 05:19 049 2 gusting 4 18.3
2020-Jul-04 05:13 040 2 gusting 5 18.3
2020-Jul-04 05:09 023 2 gusting 5 18.3
2020-Jul-04 05:03 052 2 gusting 5 18.3
2020-Jul-04 04:59 035 0 gusting 5 18.3
2020-Jul-04 04:53 069 0 gusting 6 18.3
2020-Jul-04 04:49 029 2 gusting 6 18.3
2020-Jul-04 04:43 010 1 gusting 7 18.3
2020-Jul-04 04:39 324 3 gusting 7 18.3
2020-Jul-04 04:33 009 0 gusting 4 18.3
2020-Jul-04 04:29 005 0 gusting 4 18.3
2020-Jul-04 04:23 049 1 gusting 5 18.3
2020-Jul-04 04:19 051 2 gusting 7 18.3
2020-Jul-04 04:13 078 1 gusting 7 18.3
2020-Jul-04 04:09 041 1 gusting 5 18.3
2020-Jul-04 04:03 026 2 gusting 6 18.3
2020-Jul-04 03:59 042 1 gusting 6 18.3
2020-Jul-04 03:53 026 1 gusting 4 18.3
2020-Jul-04 03:49 024 1 gusting 5 18.3
2020-Jul-04 03:43 005 2 gusting 7 18.3
2020-Jul-04 03:39 024 0 gusting 7 18.3
2020-Jul-04 03:33 053 2 gusting 5 18.3
2020-Jul-04 03:29 053 1 gusting 6 18.3
2020-Jul-04 03:23 044 2 gusting 6 18.3
2020-Jul-04 03:20 044 1 gusting 5 18.3
2020-Jul-04 03:13 049 2 gusting 5 18.3
2020-Jul-04 03:10 048 1 gusting 4 18.3
2020-Jul-04 03:03 075 1 gusting 4 18.3
2020-Jul-04 02:59 046 2 gusting 5 18.3
2020-Jul-04 02:53 342 2 gusting 6 18.3
2020-Jul-04 02:50 030 2 gusting 6 18.3
2020-Jul-04 02:43 087 1 gusting 4 18.3
2020-Jul-04 02:39 063 1 gusting 5 18.3
2020-Jul-04 02:33 016 1 gusting 5 18.3
2020-Jul-04 02:29 059 2 gusting 6 18.3
2020-Jul-04 02:23 091 2 gusting 7 18.3
2020-Jul-04 02:19 111 1 gusting 7 18.3
2020-Jul-04 02:13 063 2 gusting 7 18.3
2020-Jul-04 02:09 067 1 gusting 7 18.3
2020-Jul-04 02:03 057 2 gusting 6 18.3
2020-Jul-04 01:59 060 2 gusting 9 18.3
2020-Jul-04 01:53 076 2 gusting 9 18.9
2020-Jul-04 01:49 057 2 gusting 6 18.9
2020-Jul-04 01:43 031 1 gusting 4 18.9
2020-Jul-04 01:39 059 2 gusting 4 18.9
2020-Jul-04 01:33 047 1 gusting 4 18.9
2020-Jul-04 01:29 101 1 gusting 6 18.9
2020-Jul-04 01:23 087 2 gusting 6 18.9
2020-Jul-04 01:20 063 0 gusting 6 18.9
2020-Jul-04 01:13 026 2 gusting 6 18.9
2020-Jul-04 01:09 080 2 gusting 6 18.9
2020-Jul-04 01:03 063 2 gusting 5 18.9
2020-Jul-04 01:00 054 2 gusting 4 18.9
2020-Jul-04 00:53 051 1 gusting 4 18.9
2020-Jul-04 00:49 055 1 gusting 4 18.9
2020-Jul-04 00:43 053 0 gusting 5 18.9
2020-Jul-04 00:39 051 2 gusting 6 18.9
2020-Jul-04 00:33 034 1 gusting 4 18.9
2020-Jul-04 00:29 046 1 gusting 4 18.9
2020-Jul-04 00:23 063 2 gusting 4 18.9
2020-Jul-04 00:19 061 1 gusting 4 18.9
2020-Jul-04 00:13 034 0 gusting 3 19.4
2020-Jul-04 00:09 034 1 gusting 3 18.9
2020-Jul-04 00:03 119 0 gusting 6 18.9
2020-Jul-03 23:59 119 0 gusting 6 18.9
2020-Jul-03 23:53 086 0 gusting 3 18.9
2020-Jul-03 23:49 063 1 gusting 3 19.4
2020-Jul-03 23:43 095 1 gusting 3 19.4
2020-Jul-03 23:39 074 1 gusting 3 19.4
2020-Jul-03 23:33 039 1 gusting 4 19.4
2020-Jul-03 23:29 067 1 gusting 6 19.4
2020-Jul-03 23:23 097 3 gusting 6 19.4
2020-Jul-03 23:19 124 1 gusting 6 19.4
2020-Jul-03 23:13 118 1 gusting 6 19.4
2020-Jul-03 23:09 109 2 gusting 8 19.4
2020-Jul-03 23:03 119 3 gusting 8 19.4
2020-Jul-03 23:00 039 1 gusting 6 19.4
2020-Jul-03 22:53 011 1 gusting 5 19.4
2020-Jul-03 22:49 092 1 gusting 5 19.4
2020-Jul-03 22:43 101 1 gusting 6 19.4
2020-Jul-03 22:39 097 2 gusting 6 19.4
2020-Jul-03 22:33 113 1 gusting 6 20.0
2020-Jul-03 22:29 087 2 gusting 6 20.0
2020-Jul-03 22:23 158 1 gusting 6 20.0
2020-Jul-03 22:19 148 1 gusting 6 20.6
2020-Jul-03 22:13 061 0 gusting 2 20.6
2020-Jul-03 22:09 120 0 gusting 2 20.6
2020-Jul-03 22:03 114 0 gusting 2 20.6
2020-Jul-03 21:59 115 0 gusting 4 20.6
2020-Jul-03 21:53 093 1 gusting 4 20.6
2020-Jul-03 21:49 088 0 gusting 4 20.6
2020-Jul-03 21:43 097 1 gusting 3 20.6
2020-Jul-03 21:39 074 0 gusting 3 20.6
2020-Jul-03 21:33 080 0 gusting 3 20.6
2020-Jul-03 21:29 065 1 gusting 3 21.1
2020-Jul-03 21:23 103 0 gusting 4 21.1
2020-Jul-03 21:19 090 1 gusting 5 21.1
2020-Jul-03 21:13 061 1 gusting 6 21.1
2020-Jul-03 21:09 044 1 gusting 6 21.1
2020-Jul-03 21:03 096 2 gusting 5 21.1
2020-Jul-03 20:59 090 0 gusting 3 21.1
2020-Jul-03 20:53 030 0 gusting 3 21.1
2020-Jul-03 20:49 078 0 gusting 5 21.7
2020-Jul-03 20:43 044 0 gusting 5 21.7
2020-Jul-03 20:39 057 0 gusting 3 21.7
2020-Jul-03 20:33 054 1 gusting 2 21.7
2020-Jul-03 20:29 087 0 gusting 2 21.7
2020-Jul-03 20:23 087 1 gusting 2 21.7
2020-Jul-03 20:19 110 0 gusting 2 21.7
2020-Jul-03 20:13 061 0 gusting 6 21.7
2020-Jul-03 20:09 061 2 gusting 6 21.7
2020-Jul-03 20:03 103 1 gusting 6 21.7
2020-Jul-03 19:59 088 2 gusting 6 21.7
2020-Jul-03 19:53 060 1 gusting 6 21.7
2020-Jul-03 19:49 105 2 gusting 6 22.2
2020-Jul-03 19:43 078 1 gusting 3 22.2
2020-Jul-03 19:39 087 1 gusting 3 22.2
2020-Jul-03 19:33 092 0 gusting 6 23.3
2020-Jul-03 19:29 092 1 gusting 6 23.3
2020-Jul-03 19:23 105 2 gusting 6 23.3
2020-Jul-03 19:19 024 2 gusting 7 23.3
2020-Jul-03 19:13 046 5 gusting 9 24.4
2020-Jul-03 19:09 017 4 gusting 9 24.4
2020-Jul-03 19:03 082 4 gusting 9 25.6
2020-Jul-03 18:59 110 2 gusting 10 26.1
2020-Jul-03 18:53 061 3 gusting 10 26.7
2020-Jul-03 18:49 081 3 gusting 10 27.2
2020-Jul-03 18:43 096 4 gusting 10 27.2
2020-Jul-03 18:39 018 4 gusting 8 27.2
2020-Jul-03 18:33 158 1 gusting 7 26.1
2020-Jul-03 18:29 104 2 gusting 7 26.1
2020-Jul-03 18:23 092 2 gusting 6 25.6
2020-Jul-03 18:19 116 3 gusting 6 25.6
2020-Jul-03 18:13 192 4 gusting 6 25.6
2020-Jul-03 18:09 136 3 gusting 8 25.0
2020-Jul-03 18:03 165 4 gusting 8 25.0
2020-Jul-03 17:59 105 3 gusting 10 25.6
2020-Jul-03 17:53 171 3 gusting 10 25.6
2020-Jul-03 17:49 098 4 gusting 7 25.6
2020-Jul-03 17:43 172 4 gusting 8 26.1
2020-Jul-03 17:39 119 1 gusting 8 26.1
2020-Jul-03 17:33 109 3 gusting 9 27.2
2020-Jul-03 17:29 169 3 gusting 9 27.2
2020-Jul-03 17:23 155 4 gusting 8 27.2
2020-Jul-03 17:19 184 3 gusting 8 27.8
2020-Jul-03 17:13 103 4 gusting 7 26.7
2020-Jul-03 17:09 141 2 gusting 7 26.7
2020-Jul-03 17:03 115 3 gusting 6 26.7
2020-Jul-03 16:59 191 2 gusting 6 26.7
2020-Jul-03 16:54 169 4 gusting 6 26.7
2020-Jul-03 16:49 071 2 gusting 5 27.2
2020-Jul-03 16:43 155 1 gusting 4 27.2
2020-Jul-03 16:39 175 2 gusting 4 27.2
2020-Jul-03 16:33 150 2 gusting 5 27.2
2020-Jul-03 16:29 133 2 gusting 5 27.2
2020-Jul-03 16:23 161 2 gusting 6 27.8
2020-Jul-03 16:19 173 3 gusting 6 28.3
2020-Jul-03 16:13 042 2 gusting 6 28.3
2020-Jul-03 16:09 110 1 gusting 6 27.8
2020-Jul-03 16:03 111 2 gusting 6 27.2
2020-Jul-03 15:59 082 2 gusting 6 27.2
2020-Jul-03 15:54 073 1 gusting 5 27.8
2020-Jul-03 15:49 064 1 gusting 5 27.2
2020-Jul-03 15:43 046 2 gusting 5 27.2
2020-Jul-03 15:39 327 1 gusting 4 27.2
2020-Jul-03 15:33 105 2 gusting 6 27.2
2020-Jul-03 15:29 111 0 gusting 6 26.7
2020-Jul-03 15:23 062 0 gusting 2 26.7
2020-Jul-03 15:19 020 1 gusting 2 26.7
2020-Jul-03 15:13 051 0 gusting 3 26.7
2020-Jul-03 15:09 017 1 gusting 3 26.7
2020-Jul-03 15:03 048 1 gusting 5 26.7
2020-Jul-03 14:59 059 2 gusting 5 26.7
2020-Jul-03 14:53 015 1 gusting 5 26.7
2020-Jul-03 14:49 053 0 gusting 5 27.2
2020-Jul-03 14:43 042 0 gusting 4 27.2
2020-Jul-03 14:39 056 1 gusting 5 27.2
2020-Jul-03 14:33 313 2 gusting 6 27.2
2020-Jul-03 14:29 029 2 gusting 6 27.2
2020-Jul-03 14:23 046 2 gusting 5 26.7
2020-Jul-03 14:19 022 1 gusting 5 26.7
2020-Jul-03 14:13 051 0 gusting 6 26.7
2020-Jul-03 14:09 023 2 gusting 6 26.7
2020-Jul-03 14:03 044 2 gusting 7 26.7
2020-Jul-03 13:59 064 2 gusting 7 26.7
2020-Jul-03 13:53 049 2 gusting 6 26.7
2020-Jul-03 13:49 023 2 gusting 7 26.7
2020-Jul-03 13:43 329 3 gusting 7 26.7
2020-Jul-03 13:39 040 1 gusting 10 26.7
2020-Jul-03 13:33 040 4 gusting 10 27.2
2020-Jul-03 13:29 068 4 gusting 8 27.2
2020-Jul-03 13:23 076 2 gusting 5 27.2
2020-Jul-03 13:19 355 2 gusting 5 27.2
2020-Jul-03 13:13 026 2 gusting 6 26.7
2020-Jul-03 13:09 346 2 gusting 8 26.7
2020-Jul-03 13:03 044 4 gusting 11 26.7
2020-Jul-03 12:59 030 3 gusting 11 26.7
2020-Jul-03 12:53 032 3 gusting 7 26.7
2020-Jul-03 12:49 042 3 gusting 6 26.7
2020-Jul-03 12:43 071 2 gusting 5 26.7
2020-Jul-03 12:39 069 1 gusting 5 26.7
2020-Jul-03 12:33 033 2 gusting 6 26.1
2020-Jul-03 12:29 281 3 gusting 6 26.1
2020-Jul-03 12:23 005 2 gusting 6 26.1
2020-Jul-03 12:19 027 1 gusting 6 26.1
2020-Jul-03 12:13 298 1 gusting 4 26.1
2020-Jul-03 12:09 324 2 gusting 4 25.6
2020-Jul-03 12:03 035 2 gusting 5 25.6
2020-Jul-03 11:59 045 2 gusting 5 25.6
2020-Jul-03 11:53 015 2 gusting 6 25.6
2020-Jul-03 11:49 360 1 gusting 6 25.0
2020-Jul-03 11:43 017 1 gusting 5 25.0
2020-Jul-03 11:39 009 0 gusting 5 24.4
2020-Jul-03 11:33 323 2 gusting 5 24.4
2020-Jul-03 11:29 017 0 gusting 6 24.4
2020-Jul-03 11:23 335 1 gusting 5 23.9
2020-Jul-03 11:19 050 2 gusting 5 23.9
2020-Jul-03 11:13 019 1 gusting 4 23.9
2020-Jul-03 11:09 355 1 gusting 4 23.9
2020-Jul-03 11:03 028 0 gusting 4 23.9
2020-Jul-03 10:59 013 0 gusting 4 23.9
2020-Jul-03 10:53 005 1 gusting 4 23.3
2020-Jul-03 10:49 355 0 gusting 3 23.3
2020-Jul-03 10:43 355 1 gusting 3 23.3
2020-Jul-03 10:39 005 0 gusting 4 23.3
2020-Jul-03 10:33 319 0 gusting 4 23.3
2020-Jul-03 10:29 005 0 gusting 2 22.8
2020-Jul-03 10:23 020 0 gusting 1 22.8
2020-Jul-03 10:19 020 0 gusting 2 22.8
2020-Jul-03 10:13 005 0 gusting 1 22.8
2020-Jul-03 10:09 005 0 gusting 1 22.8
2020-Jul-03 10:03 005 0 gusting 1 22.8
2020-Jul-03 09:59 005 22.8
2020-Jul-03 09:53 005 1 gusting 2 22.8
2020-Jul-03 09:49 005 0 gusting 2 22.8
2020-Jul-03 09:43 009 0 gusting 2 22.8
2020-Jul-03 09:39 009 0 gusting 2 22.8
2020-Jul-03 09:33 015 0 gusting 2 22.8
2020-Jul-03 09:29 024 0 gusting 2 22.8
2020-Jul-03 09:23 348 0 gusting 2 22.8
2020-Jul-03 09:19 348 0 gusting 3 22.8
2020-Jul-03 09:13 030 1 gusting 3 22.8
2020-Jul-03 09:09 355 1 gusting 2 22.8
2020-Jul-03 09:03 014 0 gusting 3 22.8
2020-Jul-03 08:59 005 0 gusting 3 22.8
2020-Jul-03 08:53 005 1 gusting 3 22.8
2020-Jul-03 08:49 015 0 gusting 3 22.8
2020-Jul-03 08:43 315 0 gusting 2 22.8
2020-Jul-03 08:39 355 0 gusting 2 22.8
2020-Jul-03 08:33 340 0 gusting 3 22.8
2020-Jul-03 08:29 355 0 gusting 3 22.8
2020-Jul-03 08:23 011 0 gusting 2 22.8
2020-Jul-03 08:19 326 0 gusting 2 22.8
2020-Jul-03 08:13 327 0 gusting 3 22.8
2020-Jul-03 08:09 324 0 gusting 3 22.8
2020-Jul-03 08:03 342 0 gusting 3 22.8
2020-Jul-03 07:59 345 0 gusting 3 22.8
2020-Jul-03 07:53 005 0 gusting 4 22.8
2020-Jul-03 07:49 342 0 gusting 4 22.8
2020-Jul-03 07:43 341 1 gusting 3 22.8
2020-Jul-03 07:39 313 22.8
2020-Jul-03 07:33 340 1 gusting 3 22.8
2020-Jul-03 07:29 005 0 gusting 3 22.8
2020-Jul-03 07:23 329 0 gusting 4 22.8
2020-Jul-03 07:19 315 0 gusting 5 22.8
2020-Jul-03 07:13 336 1 gusting 5 22.8
2020-Jul-03 07:09 349 0 gusting 3 22.8
2020-Jul-03 07:03 302 1 gusting 4 22.8
2020-Jul-03 06:59 331 0 gusting 4 22.8
2020-Jul-03 06:53 344 0 gusting 4 22.8
2020-Jul-03 06:49 341 1 gusting 5 22.8
2020-Jul-03 06:43 329 1 gusting 5 22.8
2020-Jul-03 06:39 337 1 gusting 5 22.8
2020-Jul-03 06:33 321 0 gusting 3 22.2
2020-Jul-03 06:29 302 0 gusting 4 22.2
2020-Jul-03 06:24 320 1 gusting 4 22.2
2020-Jul-03 06:19 333 1 gusting 3 22.2
2020-Jul-03 06:13 034 0 gusting 4 21.7
2020-Jul-03 06:09 324 0 gusting 4 21.7
2020-Jul-03 06:03 330 0 gusting 2 21.7
2020-Jul-03 05:59 327 0 gusting 2 21.7
2020-Jul-03 05:53 327 21.7
2020-Jul-03 05:49 327 0 gusting 4 22.2
2020-Jul-03 05:43 327 0 gusting 4 22.2
2020-Jul-03 05:39 325 0 gusting 2 22.2
2020-Jul-03 05:33 331 0 gusting 4 22.2
2020-Jul-03 05:29 345 1 gusting 4 21.7
2020-Jul-03 05:23 005 1 gusting 3 21.7
2020-Jul-03 05:19 338 1 gusting 3 21.1
2020-Jul-03 05:13 340 1 gusting 2 21.1
2020-Jul-03 05:09 306 0 gusting 1 20.6
2020-Jul-03 05:03 298 20.6
2020-Jul-03 04:59 298 21.1
2020-Jul-03 04:53 298 21.1
2020-Jul-03 04:49 298 21.1
2020-Jul-03 04:43 298 21.1
2020-Jul-03 04:39 298 21.1
2020-Jul-03 04:33 298 0 gusting 1 21.1
2020-Jul-03 04:29 298 0 gusting 3 21.1
2020-Jul-03 04:23 298 0 gusting 3 21.1
2020-Jul-03 04:19 298 0 gusting 0 21.1
2020-Jul-03 04:13 298 0 gusting 2 21.1
2020-Jul-03 04:09 298 0 gusting 2 21.1
2020-Jul-03 04:03 298 21.7
2020-Jul-03 03:59 298 0 gusting 2 21.7
2020-Jul-03 03:53 298 0 gusting 2 21.7
2020-Jul-03 03:49 298 0 gusting 2 21.7
2020-Jul-03 03:43 300 0 gusting 1 21.7
2020-Jul-03 03:39 300 21.7
2020-Jul-03 03:33 300 21.7
2020-Jul-03 03:29 300 21.7
2020-Jul-03 03:23 300 0 gusting 2 21.7
2020-Jul-03 03:19 300 0 gusting 2 21.7
2020-Jul-03 03:13 300 0 gusting 2 21.7
2020-Jul-03 03:09 300 0 gusting 1 22.2
2020-Jul-03 03:03 300 0 gusting 4 22.2
2020-Jul-03 02:59 300 1 gusting 4 22.2
2020-Jul-03 02:53 288 1 gusting 3 22.2
2020-Jul-03 02:49 288 0 gusting 3 22.2
2020-Jul-03 02:43 299 0 gusting 3 22.2
2020-Jul-03 02:40 299 0 gusting 3 22.2
2020-Jul-03 02:33 224 0 gusting 3 22.2
2020-Jul-03 02:30 238 22.2
2020-Jul-03 02:23 248 0 gusting 3 22.2
2020-Jul-03 02:20 251 1 gusting 3 22.2
2020-Jul-03 02:13 276 0 gusting 4 22.2
2020-Jul-03 02:09 281 0 gusting 4 22.2
2020-Jul-03 02:03 322 1 gusting 4 22.2
2020-Jul-03 01:59 286 0 gusting 4 22.2
2020-Jul-03 01:53 246 0 gusting 3 22.2
2020-Jul-03 01:49 355 0 gusting 4 22.2
2020-Jul-03 01:43 223 2 gusting 4 22.2
2020-Jul-03 01:40 237 1 gusting 3 22.2
2020-Jul-03 01:33 299 1 gusting 6 22.2
2020-Jul-03 01:30 300 1 gusting 6 22.2
2020-Jul-03 01:23 242 1 gusting 6 22.2
2020-Jul-03 01:19 294 1 gusting 6 22.2
2020-Jul-03 01:13 225 1 gusting 8 22.2
2020-Jul-03 01:09 244 2 gusting 9 21.7
2020-Jul-03 01:03 156 3 gusting 6 22.2
2020-Jul-03 01:00 280 1 gusting 6 22.2
2020-Jul-03 00:53 232 1 gusting 7 22.2
2020-Jul-03 00:50 244 1 gusting 7 21.7
2020-Jul-03 00:43 222 1 gusting 6 22.2
2020-Jul-03 00:40 213 2 gusting 8 22.2
2020-Jul-03 00:33 257 1 gusting 8 22.2
2020-Jul-03 00:29 267 1 gusting 8 22.2
2020-Jul-03 00:23 230 4 gusting 6 22.2
2020-Jul-03 00:19 247 2 gusting 9 22.2
2020-Jul-03 00:13 213 5 gusting 9 22.2
2020-Jul-03 00:09 198 2 gusting 6 22.8
2020-Jul-03 00:03 227 1 gusting 6 22.8
2020-Jul-02 23:59 241 1 gusting 7 22.8
2020-Jul-02 23:53 202 3 gusting 7 22.8
2020-Jul-02 23:49 228 1 gusting 7 22.8
2020-Jul-02 23:43 220 1 gusting 6 22.8
2020-Jul-02 23:39 144 2 gusting 6 22.8
2020-Jul-02 23:33 165 0 gusting 8 22.8
2020-Jul-02 23:29 320 2 gusting 8 23.3
2020-Jul-02 23:23 307 1 gusting 6 23.3
2020-Jul-02 23:19 236 2 gusting 8 23.3
2020-Jul-02 23:13 327 2 gusting 7 23.3
2020-Jul-02 23:09 263 2 gusting 6 23.9
2020-Jul-02 23:03 234 3 gusting 7 23.9
2020-Jul-02 22:59 252 2 gusting 9 23.9
2020-Jul-02 22:53 215 2 gusting 9 23.9
2020-Jul-02 22:49 286 4 gusting 9 23.9
2020-Jul-02 22:43 229 3 gusting 10 23.9
2020-Jul-02 22:39 234 1 gusting 7 23.9
2020-Jul-02 22:33 229 2 gusting 8 23.9
2020-Jul-02 22:29 228 1 gusting 9 23.9
2020-Jul-02 22:23 227 4 gusting 9 23.9
2020-Jul-02 22:19 194 4 gusting 10 23.9
2020-Jul-02 22:13 222 3 gusting 10 24.4
2020-Jul-02 22:09 239 2 gusting 8 24.4
2020-Jul-02 22:03 223 4 gusting 8 24.4
2020-Jul-02 21:59 328 2 gusting 8 24.4
2020-Jul-02 21:53 253 2 gusting 12 24.4
2020-Jul-02 21:49 249 5 gusting 12 24.4
2020-Jul-02 21:43 197 3 gusting 7 25.0
2020-Jul-02 21:39 300 2 gusting 8 25.0
2020-Jul-02 21:33 229 3 gusting 8 25.0
2020-Jul-02 21:29 200 3 gusting 10 25.0
2020-Jul-02 21:23 281 4 gusting 10 24.4
2020-Jul-02 21:19 260 4 gusting 9 25.0
2020-Jul-02 21:13 242 2 gusting 9 25.0
2020-Jul-02 21:09 213 2 gusting 9 25.6
2020-Jul-02 21:03 306 2 gusting 8 25.0
2020-Jul-02 20:59 264 5 gusting 8 25.6
2020-Jul-02 20:53 236 3 gusting 9 25.6
2020-Jul-02 20:49 284 3 gusting 9 25.6
2020-Jul-02 20:43 248 3 gusting 10 25.6
2020-Jul-02 20:39 203 6 gusting 10 25.0
2020-Jul-02 20:33 268 2 gusting 11 25.0
2020-Jul-02 20:29 168 4 gusting 11 25.0
2020-Jul-02 20:23 281 4 gusting 8 25.6
2020-Jul-02 20:19 278 2 gusting 10 25.6
2020-Jul-02 20:13 217 5 gusting 13 24.4
2020-Jul-02 20:09 251 5 gusting 13 25.0
2020-Jul-02 20:03 234 6 gusting 14 25.0